Regional Weather Roundup
Issued by NWS Memphis, TN

Home | Current Version | Previous Version | Text Only | Print | Product List | Glossary On
Versions: 1 2 3 4 5 6 7 8 9 10 11 12 13 14 15 16 17 18 19 20 21 22 23 24 25 26 27 28 29 30 31 32 33 34 35 36 37 38 39 40 41 42 43 44 45 46 47 48 49 50
000
ASUS44 KMEG 021110
RWRMEG
MEMPHIS CWA HOURLY WEATHER ROUNDUP
NATIONAL WEATHER SERVICE MEMPHIS TN
600 AM CDT THU OCT 02 2014

...WEST TENNESSEE...

CITY           SKY/WX    TMP DP  RH WIND       PRES   REMARKS
MEMPHIS INTL   PTCLDY    72  66  81 S9        29.92R
NWS MEMPHIS      N/A     72 N/A N/A MISG        N/A
JACKSON        CLEAR     70  62  76 S7        29.95R
LEXINGTON      CLEAR     61  59  94 CALM      29.97R
SAVANNAH       CLEAR     70  63  78 S5        29.99R
DYERSBURG      CLEAR     68  54  60 S5        29.94R
UNION CITY     CLEAR     64  61  88 CALM      29.93R
PARIS          CLOUDY    66  57  72 S5        29.97R
HUNTINGDON     CLEAR     64  58  81 SE5       29.96R


...EASTERN ARKANSAS...

CITY           SKY/WX    TMP DP  RH WIND       PRES   REMARKS
JONESBORO      CLEAR     69  65  86 S7        29.89R
WEST MEMPHIS   CLEAR     72  70  93 S9        29.90R
BATESVILLE     MOCLDY    73  68  83 SE12G17   29.86R
NEWPORT        PTCLDY    73  69  87 S9        29.88R
WALNUT RIDGE   CLOUDY    70  64  83 S5        29.87R
BLYTHEVILLE    CLEAR     70  64  81 S7        29.91R
SEARCY         CLOUDY    72  69  90 S5        29.88R
STUTTGART      CLOUDY   N/A N/A N/A S12       29.89R
PINE BLUFF     CLOUDY    75  72  90 S12       29.88R
MONTICELLO     CLOUDY    76  72  87 S6        29.90R


...NORTH MISSISSIPPI...

CITY           SKY/WX    TMP DP  RH WIND       PRES   REMARKS
TUPELO         CLEAR     68  62  81 S3        29.98R
OXFORD         CLOUDY    68  64  88 SE7       29.97S
OLIVE BRANCH   CLEAR     68  68 100 S6        29.94R
TUNICA         MOCLDY    70  66  88 S10       29.93R
CLARKSDALE     CLOUDY    75  72  88 S9        29.93R
CORINTH          N/A     63  59  88 CALM      29.97R
GRENADA        CLOUDY    70  68  94 CALM      29.95S
GREENWOOD      CLOUDY    73  70  90 S7        29.94R
COLUMBUS       MOCLDY    66  64  91 SE7       29.99R
STARKVILLE     CLOUDY    68  64  88 CALM      29.98R
GOLDEN TRIANGL CLOUDY    68  61  77 SE7       29.98R


...SOUTHEAST MISSOURI...

CITY           SKY/WX    TMP DP  RH WIND       PRES   REMARKS
WEST PLAINS    PTCLDY    69  66  90 S5        29.88R
POPLAR BLUFF   CLEAR     67  61  81 CALM      29.88R
CAPE GIRARDEAU CLOUDY    72  62  71 S9        29.90R


...NORTHWEST ALABAMA...

CITY           SKY/WX    TMP DP  RH WIND       PRES   REMARKS
MUSCLE SHOALS  CLEAR     64  59  83 CALM      30.02R


...MIDDLE TENNESSEE...

CITY           SKY/WX    TMP DP  RH WIND       PRES   REMARKS
NASHVILLE      PTCLDY    64  59  83 S5        30.02R
CLARKSVILLE    CLOUDY    65  61  87 SE5       29.98R
COLUMBIA       MOCLDY    63  63 100 CALM      30.00R
LEWISBURG      CLOUDY    62  58  87 CALM      30.02R


...WESTERN KENTUCKY...

CITY           SKY/WX    TMP DP  RH WIND       PRES   REMARKS
PADUCAH        CLOUDY    71  60  68 S5        29.92R
FORT CAMPBELL  CLOUDY    68  60  77 S6        29.97R


...CENTRAL ARKANSAS...

CITY           SKY/WX    TMP DP  RH WIND       PRES   REMARKS
LITTLE ROCK    CLOUDY    75  71  87 S10       29.86R


SKY/WX REPORTED AS FAIR MEANS FEW OR NO CLOUDS BELOW
12 THOUSAND FEET.



USA.gov is the U.S. government's official web portal to all federal, state and local government web resources and services.